Flag for Argentina Weather past 2 weeks in Ushuaia, Tierra del Fuego, Argentina

Now
48 °F

Passing clouds.


Feels Like: 41 °F
Forecast: 44 / 53 °F
Wind: 20 mph from West

Location: Ushuaia Aerodrome

Current Time: Mar 4, 2015 at 5:45:43 AM

Latest Report: Mar 4, 2015 at 4:00 AM


Visibility: N/A

Pressure: 29.30 "Hg

Humidity: 62%

Dew point: 36 °F

Location of UshuaiaLocation

Historic Weather in Ushuaia — Graph

°F

Ushuaia temperature yesterday

Maximum temperature yesterday: 54 °F (at 5:00 PM)
Minimum temperature yesterday: 36 °F (at 5:00 AM)
Average temperature yesterday: 46 °F

Past Weeks' High & Low Weather Summary

 TemperatureHumidityPressure
High63 °F (Mar 1, 3:00 PM)100% (Feb 19, 6:00 AM)30.09 "Hg (Feb 19, 6:00 AM)
Low36 °F (Mar 3, 5:00 AM)31% (Mar 2, 1:00 PM)29.00 "Hg (Feb 23, 4:00 AM)
Average47 °F73%29.52 "Hg
* Reported Feb 17 7:00 AM — Mar 4 4:00 AM, Ushuaia, Weather by CustomWeather, © 2015

Note: Actual official high and low records may vary slightly from our data, if they occured in-between our weather recording intervals... More about our weather records

Advertising

Ushuaia weather history for previous 24 hours

 ConditionsComfort  
Time TempWeatherWind HumidityBarometerVisibility
4:00 AM
Wed, Mar 4
48 °FPassing clouds.20 mph62%29.30 "HgN/A
3:00 AM50 °FPassing clouds.20 mph50%29.27 "HgN/A
2:00 AM50 °FPassing clouds.13 mph50%29.27 "HgN/A
11:00 PM
Tue, Mar 3
50 °FPassing clouds.18 mph76%29.21 "HgN/A
10:00 PM50 °FPassing clouds.16 mph71%29.21 "HgN/A
9:00 PM52 °FPassing clouds.6 mph67%29.18 "HgN/A
8:00 PM52 °FPartly cloudy.10 mph67%29.15 "HgN/A
7:00 PM52 °FPartly sunny.15 mph67%29.15 "HgN/A
6:00 PM54 °FBroken clouds.14 mph67%29.12 "HgN/A
5:00 PM54 °FBroken clouds.14 mph63%29.12 "HgN/A
4:00 PM52 °FBroken clouds.17 mph67%29.09 "HgN/A
2:00 PM50 °FScattered clouds.7 mph67%29.06 "HgN/A
1:00 PM50 °FScattered clouds.3 mph67%29.06 "HgN/A
12:00 PM46 °FPartly sunny.7 mph71%29.09 "HgN/A
11:00 AM46 °FDrizzle. Partly sunny.7 mph71%29.09 "HgN/A
10:00 AM45 °FPartly sunny.5 mph71%29.09 "HgN/A
9:00 AM45 °FPartly sunny.5 mph71%29.09 "HgN/A
8:00 AM41 °FPartly sunny.3 mph93%29.09 "HgN/A
7:00 AM41 °FPartly sunny.10 mph87%29.09 "HgN/A
6:00 AM36 °FMostly cloudy.7 mph100%29.12 "HgN/A
5:00 AM36 °FMostly cloudy.1 mph100%29.12 "HgN/A
Weather by CustomWeather, © 2015

See weather overviewHow to use our weather pages